Flag for U.S.A. Weather past 2 weeks in Jackson, Mississippi, U.S.A.

Now
76 °F

Clear.


Feels Like: 76 °F
Forecast: 72 / 91 °F
Wind: 5 mph from South

Location: Hawkins Field

Current Time: Sep 1, 2014 at 6:30:13 AM

Latest Report: Sep 1, 2014 at 5:53 AM


Visibility: 7 mi

Pressure: 30.02 "Hg

Humidity: 91%

Dew point: 73 °F

Location of JacksonLocation

Historic Weather in Jackson — Graph

°F

Jackson temperature yesterday

Maximum temperature yesterday: 86 °F (at 2:53 PM)
Minimum temperature yesterday: 74 °F (at 12:53 AM)
Average temperature yesterday: 79 °F

Past Weeks' High & Low Weather Summary

 TemperatureHumidityPressure
High95 °F (Aug 23, 2:53 PM)94% (Aug 30, 5:53 AM)30.13 "Hg (Aug 30, 5:53 AM)
Low71 °F (Aug 28, 4:53 AM)32% (Aug 28, 12:53 PM)29.87 "Hg (Aug 19, 1:53 AM)
Average82 °F71%29.99 "Hg
* Reported Aug 17 4:53 AM — Sep 1 4:53 AM, Jackson, Weather by CustomWeather, © 2014

Note: Actual official high and low records may vary slightly from our data, if they occured in-between our weather recording intervals... More about our weather records

Advertising

Jackson weather history for previous 24 hours

 ConditionsComfort  
Time TempWeatherWind HumidityBarometerVisibility
4:53 AM
Sep 1
76 °FClear.6 mph91%30.01 "Hg8 mi
3:53 AM75 °FClear.7 mph90%30.01 "Hg8 mi
2:53 AM76 °FClear.7 mph88%30.01 "Hg9 mi
1:53 AM77 °FClear.8 mph85%30.01 "Hg10 mi
12:53 AM77 °FClear.8 mph85%30.01 "Hg10 mi
11:53 PM
Aug 31
78 °FClear.8 mph84%30.01 "Hg10 mi
10:53 PM79 °FClear.7 mph88%30.02 "Hg9 mi
9:53 PM79 °FClear.5 mph88%30.01 "Hg9 mi
8:53 PM81 °FClear.5 mph85%30.02 "Hg10 mi
7:53 PM82 °FSunny.3 mph79%30.01 "Hg10 mi
6:53 PM83 °FSunny.3 mph77%30.01 "Hg10 mi
5:53 PM85 °FSunny.5 mph72%30.01 "Hg10 mi
4:53 PM86 °FSunny.8 mph67%30.01 "Hg10 mi
3:53 PM86 °FSunny.5 mph70%30.03 "Hg10 mi
2:53 PM86 °FPassing clouds.9 mph70%30.04 "Hg10 mi
1:53 PM85 °FPassing clouds.7 mph75%30.06 "Hg10 mi
12:53 PM84 °FPassing clouds.6 mph74%30.07 "Hg10 mi
11:53 AM82 °FScattered clouds.6 mph79%30.08 "Hg10 mi
10:53 AM80 °FSunny.7 mph81%30.09 "Hg10 mi
9:53 AM78 °FScattered clouds.6 mph84%30.08 "Hg10 mi
8:53 AM76 °FLight rain. Overcast.5 mph88%30.07 "Hg10 mi
7:53 AM75 °FMostly cloudy.5 mph90%30.08 "Hg10 mi
6:53 AM74 °FLight rain. Fog.6 mph91%30.06 "Hg5 mi
Weather by CustomWeather, © 2014

See weather overviewHow to use our weather pages